Location: Hannover
(52.3723°N, 9.7339°E)
Time: 11:30:47
(UTC+01:00)

ISS - Pass Details

Date: 11 January 2018
Orbit: 402 x 407 km, 51.6° (Epoch: 22 January)

Event Time Altitude Azimuth Distance (km) Brightness Sun altitude
Exits shadow 07:13:48 12° 258° (WSW) 1,353 -1.7 -10.6°
Maximum altitude 07:15:53 20° 214° (SW) 1,018 -1.9 -10.3°
Drops below altitude 10° 07:18:21 10° 166° (SSE) 1,464 -0.5 -10.0°
Sets 07:20:46 0° 148° (SSE) 2,321 1.0 -9.6°
